This is the latest recevied weather packets stored in our database for station/object EA7OC-10. If no packets are shown the sender has not sent any weather packets the latest 10 day(s).
| Time | Temp. | Humidity | Pressure | Rain* | Wind** | Luminosity | Snow |
|---|---|---|---|---|---|---|---|
| 1788331074 | 27.22° C | 27% | 1019.9 hPa | - | - | - | - |
| 1788330174 | 25.56° C | 26% | 1019.7 hPa | - | - | - | - |
| 1788329274 | 25° C | 25% | 1019.7 hPa | - | - | - | - |
| 1788328374 | 25° C | 25% | 1019.6 hPa | - | - | - | - |
| 1788327474 | 24.44° C | 25% | 1019.4 hPa | - | - | - | - |
| 1788326573 | 24.44° C | 25% | 1019.2 hPa | - | - | - | - |
| 1788325673 | 24.44° C | 25% | 1019.1 hPa | - | - | - | - |
| 1788324773 | 24.44° C | 25% | 1019 hPa | - | - | - | - |
| 1788323873 | 24.44° C | 25% | 1019 hPa | - | - | - | - |
| 1788322973 | 25.56° C | 24% | 1019 hPa | - | - | - | - |
| 1788322073 | 26.11° C | 24% | 1019 hPa | - | - | - | - |
| 1788321173 | 26.11° C | 24% | 1018.8 hPa | - | - | - | - |
| 1788320272 | 26.11° C | 25% | 1019 hPa | - | - | - | - |
| 1788319372 | 26.11° C | 25% | 1018.9 hPa | - | - | - | - |
| 1788317620 | 26.67° C | 24% | 1019.2 hPa | - | - | - | - |
| 1788317588 | 26.67° C | 24% | 1019.2 hPa | - | - | - | - |
| 1788316688 | 27.22° C | 24% | 1019.2 hPa | - | - | - | - |
| 1788315783 | 26.67° C | 25% | 1019.2 hPa | - | - | - | - |
| 1788314883 | 27.22° C | 24% | 1019.1 hPa | - | - | - | - |
| 1788313983 | 27.22° C | 24% | 1019.1 hPa | - | - | - | - |
| 1788313083 | 27.78° C | 24% | 1019.2 hPa | - | - | - | - |
| 1788312183 | 27.78° C | 24% | 1019.1 hPa | - | - | - | - |
| 1788311282 | 27.78° C | 24% | 1019.1 hPa | - | - | - | - |
| 1788310382 | 27.78° C | 24% | 1019.2 hPa | - | - | - | - |
| 1788309482 | 27.78° C | 24% | 1019.2 hPa | - | - | - | - |
* Rain since midnight (hover to see other rain measurements)
** Current wind speed in m/s (hover to see current wind gust speed)